When you browse on this site, cookies collect data to enhance your experience and personalize the content and advertising you see.
Visit our Privacy Policy to learn more. By continuing to use the site, you agree to this use of cookies and data.
  • en France
  • Liste des pays
  • À 7 jours
  • Température de l'eau
  • Carte satellitaire
  • Carte météo
  • Widgets météo
  • user-avatar
    Se connecter

    Météo par heure à Stepanakert

    Ce jour, 26 Avril, Vendredi

    Heure Température Précipitation Vent Pression Humidité
    00:00 +6°C° 0 mm 2 m/s 698 mmHg 78%
    01:00 +6°C° 0 mm 2 m/s 698 mmHg 77%
    02:00 +6°C° 0 mm 2 m/s 698 mmHg 75%
    03:00 +5°C° 0 mm 2 m/s 698 mmHg 74%
    04:00 +6°C° 0 mm 2 m/s 698 mmHg 73%
    05:00 +6°C° 0 mm 2 m/s 698 mmHg 73%
    06:00 +6°C° 0 mm 2 m/s 698 mmHg 72%
    07:00 +8°C° 0 mm 2 m/s 698 mmHg 66%
    08:00 +10°C° 0 mm 2 m/s 698 mmHg 60%
    09:00 +13°C° 0 mm 1 m/s 698 mmHg 55%
    10:00 +14°C° 0 mm 2 m/s 698 mmHg 53%
    11:00 +15°C° 0 mm 2 m/s 698 mmHg 52%
    12:00 +15°C° 0 mm 2 m/s 698 mmHg 50%
    13:00 +16°C° 0.3 mm 3 m/s 697 mmHg 51%
    14:00 +16°C° 0.3 mm 3 m/s 697 mmHg 51%
    15:00 +16°C° 0.3 mm 3 m/s 697 mmHg 51%
    16:00 +15°C° 0.1 mm 2 m/s 696 mmHg 56%
    17:00 +14°C° 0.1 mm 2 m/s 696 mmHg 61%
    18:00 +13°C° 0.1 mm 2 m/s 696 mmHg 66%
    19:00 +12°C° 0 mm 2 m/s 696 mmHg 68%
    20:00 +10°C° 0 mm 2 m/s 696 mmHg 70%
    21:00 +8°C° 0 mm 2 m/s 696 mmHg 72%
    22:00 +8°C° 0 mm 2 m/s 696 mmHg 70%
    23:00 +8°C° 0 mm 2 m/s 696 mmHg 69%

    Demain, 27 Avril, Samedi

    Heure Température Précipitation Vent Pression Humidité
    00:00 +7°C° 0 mm 2 m/s 696 mmHg 67%
    01:00 +7°C° 0 mm 2 m/s 696 mmHg 67%
    02:00 +7°C° 0 mm 2 m/s 696 mmHg 66%
    03:00 +7°C° 0 mm 2 m/s 696 mmHg 65%
    04:00 +7°C° 0 mm 2 m/s 696 mmHg 65%
    05:00 +7°C° 0 mm 2 m/s 696 mmHg 64%
    06:00 +8°C° 0 mm 2 m/s 696 mmHg 63%
    07:00 +9°C° 0 mm 2 m/s 696 mmHg 58%
    08:00 +12°C° 0 mm 2 m/s 696 mmHg 52%
    09:00 +14°C° 0 mm 2 m/s 696 mmHg 46%
    10:00 +15°C° 0 mm 2 m/s 696 mmHg 44%
    11:00 +16°C° 0 mm 2 m/s 696 mmHg 43%
    12:00 +17°C° 0 mm 3 m/s 696 mmHg 41%
    13:00 +17°C° 0 mm 3 m/s 695 mmHg 42%
    14:00 +18°C° 0 mm 3 m/s 695 mmHg 42%
    15:00 +18°C° 0 mm 3 m/s 695 mmHg 43%
    16:00 +17°C° 0 mm 2 m/s 694 mmHg 49%
    17:00 +16°C° 0 mm 2 m/s 694 mmHg 55%
    18:00 +15°C° 0 mm 2 m/s 694 mmHg 61%
    19:00 +13°C° 0 mm 2 m/s 694 mmHg 64%
    20:00 +12°C° 0 mm 2 m/s 694 mmHg 68%
    21:00 +10°C° 0 mm 2 m/s 694 mmHg 71%
    22:00 +9°C° 0 mm 2 m/s 694 mmHg 68%
    23:00 +9°C° 0 mm 2 m/s 694 mmHg 65%

    Après-demain, 28 Avril, Dimanche

    Heure Température Précipitation Vent Pression Humidité
    00:00 +9°C° 0 mm 2 m/s 693 mmHg 62%
    01:00 +8°C° 0 mm 2 m/s 693 mmHg 60%
    02:00 +8°C° 0 mm 2 m/s 693 mmHg 57%
    03:00 +8°C° 0 mm 2 m/s 693 mmHg 55%
    04:00 +8°C° 0 mm 2 m/s 692 mmHg 54%
    05:00 +8°C° 0 mm 2 m/s 692 mmHg 54%
    06:00 +9°C° 0 mm 2 m/s 692 mmHg 53%
    07:00 +12°C° 0 mm 2 m/s 693 mmHg 49%
    08:00 +14°C° 0 mm 2 m/s 693 mmHg 46%
    09:00 +17°C° 0 mm 2 m/s 693 mmHg 42%
    10:00 +17°C° 0 mm 2 m/s 693 mmHg 42%
    11:00 +18°C° 0 mm 2 m/s 692 mmHg 42%
    12:00 +19°C° 0 mm 2 m/s 692 mmHg 42%
    13:00 +20°C° 0 mm 2 m/s 692 mmHg 43%
    14:00 +20°C° 0 mm 2 m/s 691 mmHg 44%
    15:00 +20°C° 0 mm 3 m/s 691 mmHg 45%
    16:00 +19°C° 0 mm 2 m/s 691 mmHg 51%
    17:00 +18°C° 0 mm 2 m/s 690 mmHg 57%
    18:00 +18°C° 0 mm 1 m/s 690 mmHg 64%
    19:00 +16°C° 0 mm 1 m/s 690 mmHg 64%
    20:00 +14°C° 0 mm 2 m/s 691 mmHg 65%
    21:00 +13°C° 0 mm 2 m/s 691 mmHg 66%
    22:00 +13°C° 0 mm 2 m/s 691 mmHg 62%
    23:00 +12°C° 0 mm 2 m/s 691 mmHg 58%

    29 Avril, Lundi

    Heure Température Précipitation Vent Pression Humidité
    00:00 +11°C° 0 mm 3 m/s 691 mmHg 54%
    01:00 +12°C° 0 mm 2 m/s 691 mmHg 53%
    02:00 +12°C° 0 mm 2 m/s 691 mmHg 53%
    03:00 +12°C° 0 mm 2 m/s 691 mmHg 52%
    04:00 +12°C° 0 mm 2 m/s 691 mmHg 54%
    05:00 +12°C° 0 mm 2 m/s 691 mmHg 56%
    06:00 +12°C° 0 mm 2 m/s 691 mmHg 58%
    07:00 +15°C° 0 mm 2 m/s 692 mmHg 53%
    08:00 +17°C° 0 mm 2 m/s 692 mmHg 47%
    09:00 +19°C° 0 mm 2 m/s 692 mmHg 42%
    10:00 +20°C° 0 mm 2 m/s 692 mmHg 42%
    11:00 +21°C° 0 mm 2 m/s 692 mmHg 41%
    12:00 +23°C° 0 mm 2 m/s 692 mmHg 41%
    13:00 +23°C° 0.2 mm 2 m/s 691 mmHg 43%
    14:00 +23°C° 0.2 mm 2 m/s 691 mmHg 45%
    15:00 +23°C° 0.2 mm 2 m/s 690 mmHg 46%
    16:00 +21°C° 0.1 mm 2 m/s 690 mmHg 53%
    17:00 +20°C° 0.1 mm 1 m/s 690 mmHg 59%
    18:00 +19°C° 0.1 mm 1 m/s 690 mmHg 66%
    19:00 +18°C° 0 mm 1 m/s 690 mmHg 67%
    20:00 +16°C° 0 mm 1 m/s 690 mmHg 67%
    21:00 +15°C° 0 mm 2 m/s 691 mmHg 68%
    22:00 +15°C° 0 mm 2 m/s 691 mmHg 66%
    23:00 +15°C° 0 mm 2 m/s 691 mmHg 64%

    30 Avril, Mardi

    Heure Température Précipitation Vent Pression Humidité
    00:00 +15°C° 0 mm 2 m/s 691 mmHg 63%
    01:00 +14°C° 0.1 mm 2 m/s 690 mmHg 63%
    02:00 +14°C° 0.1 mm 2 m/s 690 mmHg 64%
    03:00 +13°C° 0.1 mm 2 m/s 690 mmHg 65%
    04:00 +13°C° 0 mm 2 m/s 690 mmHg 65%
    05:00 +14°C° 0 mm 1 m/s 690 mmHg 65%
    06:00 +14°C° 0 mm 1 m/s 691 mmHg 65%
    07:00 +16°C° 0 mm 2 m/s 691 mmHg 60%
    08:00 +18°C° 0 mm 2 m/s 691 mmHg 55%
    09:00 +20°C° 0 mm 2 m/s 691 mmHg 50%
    10:00 +21°C° 0 mm 2 m/s 691 mmHg 47%
    11:00 +22°C° 0 mm 3 m/s 691 mmHg 45%
    12:00 +24°C° 0 mm 3 m/s 691 mmHg 42%
    13:00 +22°C° 0.5 mm 3 m/s 690 mmHg 46%
    14:00 +21°C° 0.5 mm 3 m/s 690 mmHg 50%
    15:00 +21°C° 0.5 mm 3 m/s 690 mmHg 54%
    16:00 +20°C° 0.6 mm 3 m/s 690 mmHg 61%
    17:00 +18°C° 0.6 mm 2 m/s 690 mmHg 68%
    18:00 +17°C° 0.6 mm 2 m/s 690 mmHg 75%
    19:00 +16°C° 0.2 mm 2 m/s 690 mmHg 78%
    20:00 +15°C° 0.2 mm 2 m/s 690 mmHg 81%
    21:00 +14°C° 0.2 mm 1 m/s 690 mmHg 84%
    22:00 +14°C° 0 mm 1 m/s 690 mmHg 82%
    23:00 +14°C° 0 mm 1 m/s 690 mmHg 79%

    1 Mai, Mercredi

    Heure Température Précipitation Vent Pression Humidité
    00:00 +14°C° 0 mm 2 m/s 690 mmHg 77%
    01:00 +13°C° 0 mm 2 m/s 690 mmHg 73%
    02:00 +13°C° 0 mm 2 m/s 690 mmHg 70%
    03:00 +13°C° 0 mm 2 m/s 689 mmHg 66%
    04:00 +13°C° 0 mm 2 m/s 690 mmHg 65%
    05:00 +14°C° 0 mm 2 m/s 690 mmHg 63%
    06:00 +14°C° 0 mm 2 m/s 690 mmHg 61%
    07:00 +16°C° 0 mm 2 m/s 690 mmHg 55%
    08:00 +19°C° 0 mm 2 m/s 690 mmHg 49%
    09:00 +21°C° 0 mm 2 m/s 691 mmHg 43%
    10:00 +23°C° 0 mm 2 m/s 690 mmHg 42%
    11:00 +24°C° 0 mm 2 m/s 690 mmHg 40%
    12:00 +25°C° 0 mm 3 m/s 690 mmHg 39%
    13:00 +25°C° 0 mm 3 m/s 689 mmHg 40%
    14:00 +25°C° 0 mm 3 m/s 689 mmHg 41%
    15:00 +25°C° 0 mm 3 m/s 688 mmHg 42%
    16:00 +24°C° 0 mm 2 m/s 688 mmHg 49%
    17:00 +23°C° 0 mm 2 m/s 687 mmHg 56%
    18:00 +21°C° 0 mm 1 m/s 687 mmHg 62%
    19:00 +19°C° 0 mm 2 m/s 687 mmHg 64%
    20:00 +17°C° 0 mm 2 m/s 687 mmHg 66%
    21:00 +16°C° 0 mm 2 m/s 687 mmHg 67%
    22:00 +16°C° 0 mm 2 m/s 687 mmHg 61%
    23:00 +16°C° 0 mm 2 m/s 687 mmHg 55%
    Voir plus